User: anonymous   Login
Location: Beang
(6.6177°N, 10.9863°W)
Time: 03:12:57
(UTC+00:00)
Language:

Cosmos 1515 Rocket - Orbit

View from above orbital plane
View from above orbital plane
View from above satellite
View from above satellite

Ground track
Ground track

The orbit data is extracted from the following two-line orbital elements,

1 14552U 83122B   20221.71330042  .00000049  00000-0  30306-5 0  9990
2 14552  82.5228  81.3192 0016557 336.9691  23.0779 14.83513907979454
Epoch (UTC): 08 August 2020 17:07:09
Eccentricity: 0.0016557
inclination: 82.5228°
perigee height: 606 km
apogee height: 630 km
right ascension of ascending node: 81.3192°
argument of perigee: 336.9691°
revolutions per day: 14.83513907
mean anomaly at epoch: 23.0779°
orbit number at epoch: 97945

The dashed part of the orbit path shows where the satellite is in the earth's shadow,  

DLR